Weather History for Manteo, NC

Change the Weather History Date:

Saturday, November 5, 2011

  Actual Average Record
Temperature  
Mean Temperature 56 °F -  
Max Temperature 59 °F 63 °F 79 °F (1974)
Min Temperature 53 °F 51 °F 34 °F (1966)
Degree Days  
Heating Degree Days 9    
Growing Degree Days 6 (Base 50)    
Moisture  
Dew Point 39 °F    
Average Humidity 53    
Maximum Humidity 63    
Minimum Humidity 47    
Precipitation  
Precipitation 0.00 in - - ()
Sea Level Pressure  
Sea Level Pressure 30.17 in    
Wind  
Wind Speed 26 mph (NE)    
Max Wind Speed 32 mph    
Max Gust Speed 47 mph    
Visibility 10 miles    
Events      
Averages and records for this station are not official NWS values.
T = Trace of Precipitation, MM = Missing Value Source: NWS Daily Summary

Daily Weather History Graph

Daily Weather History Graph

Search for Another Location

Airport:

Trip Planner

Search our weather history database for the weather conditions in past years. The results will help you decide how hot, cold, wet, or windy it might be!

Date:

Astronomy

Nov. 05, 2011 Rise Set
Actual Time 7:28 AM EDT 6:03 PM EDT
Civil Twilight 7:02 AM EDT 6:30 PM EDT
Nautical Twilight 6:31 AM EDT 7:00 PM EDT
Astronomical Twilight 6:01 AM EDT 7:30 PM EDT
Moon 3:13 PM EDT (11/5) 2:44 AM EDT (11/5)
Length of Visible Light 11h 28m
Length of Day
10h 34m
Waxing Gibbous, 78% of the Moon is Illuminated
Nov 5
Waxing Gibbous
Nov 10
Full
Nov 18
Last Quarter
Nov 25
New
Dec 2
First Quarter

Hourly Weather History & Observations

Time (EDT) Temp. Dew Point Humidity Pressure Visibility Wind Dir Wind Speed Gust Speed Precip Events Conditions
12:15 AM 55.4 °F 39.2 °F 54% 29.98 in 10.0 mi NNE 29.9 mph 47.2 mph N/A   Mostly Cloudy
12:55 AM 53.6 °F 41.0 °F 62% 29.99 in 10.0 mi NNE 27.6 mph 42.6 mph N/A   Overcast
1:15 AM 55.4 °F 41.0 °F 58% 30.00 in 10.0 mi NE 32.2 mph 41.4 mph N/A   Overcast
1:35 AM 55.4 °F 41.0 °F 58% 30.00 in 10.0 mi NNE 29.9 mph 42.6 mph N/A   Overcast
1:55 AM 55.4 °F 41.0 °F 58% 30.00 in 10.0 mi NNE 28.8 mph 42.6 mph N/A   Mostly Cloudy
2:15 AM 55.4 °F 42.8 °F 63% 30.00 in 10.0 mi NNE 26.5 mph 39.1 mph N/A   Overcast
2:35 AM 55.4 °F 39.2 °F 54% 30.00 in 10.0 mi NE 27.6 mph 43.7 mph N/A   Overcast
2:55 AM 55.4 °F 35.6 °F 47% 30.00 in 10.0 mi NE 26.5 mph 41.4 mph N/A   Mostly Cloudy
3:15 AM 55.4 °F 39.2 °F 54% 30.01 in 10.0 mi NE 25.3 mph 38.0 mph N/A   Mostly Cloudy
3:35 AM 55.4 °F 37.4 °F 51% 30.01 in 10.0 mi NE 26.5 mph 40.3 mph N/A   Overcast
3:55 AM 55.4 °F 37.4 °F 51% 30.03 in 10.0 mi NNE 25.3 mph 36.8 mph N/A   Overcast
4:15 AM 55.4 °F 37.4 °F 51% 30.04 in 10.0 mi NE 26.5 mph 39.1 mph N/A   Overcast
4:35 AM 55.4 °F 35.6 °F 47% 30.04 in 10.0 mi NE 29.9 mph 41.4 mph N/A   Overcast
4:55 AM 55.4 °F 37.4 °F 51% 30.05 in 10.0 mi NE 25.3 mph 39.1 mph N/A   Overcast
5:15 AM 55.4 °F 37.4 °F 51% 30.06 in 10.0 mi NE 26.5 mph 39.1 mph N/A   Overcast
5:35 AM 55.4 °F 37.4 °F 51% 30.07 in 10.0 mi NE 28.8 mph 38.0 mph N/A   Overcast
5:55 AM 55.4 °F 37.4 °F 51% 30.08 in 10.0 mi NE 25.3 mph 40.3 mph N/A   Overcast
6:35 AM 55.4 °F 37.4 °F 51% 30.09 in 10.0 mi NE 28.8 mph 40.3 mph N/A   Overcast
6:55 AM 55.4 °F 42.8 °F 63% 30.09 in 10.0 mi NNE 24.2 mph 39.1 mph N/A   Overcast
7:15 AM 55.4 °F 41.0 °F 58% 30.11 in 10.0 mi NE 23.0 mph 35.7 mph N/A   Overcast
7:35 AM 53.6 °F 41.0 °F 62% 30.12 in 10.0 mi NE 25.3 mph 33.4 mph N/A   Overcast
7:55 AM 55.4 °F 41.0 °F 58% 30.14 in 10.0 mi NE 26.5 mph 38.0 mph N/A   Overcast
8:15 AM 55.4 °F 37.4 °F 51% 30.15 in 10.0 mi NE 25.3 mph 36.8 mph N/A   Overcast
8:35 AM 55.4 °F 37.4 °F 51% 30.17 in 10.0 mi NE 25.3 mph 39.1 mph N/A   Overcast
8:55 AM 55.4 °F 37.4 °F 51% 30.18 in 10.0 mi NE 25.3 mph 35.7 mph N/A   Overcast
9:15 AM 55.4 °F 35.6 °F 47% 30.19 in 10.0 mi NNE 19.6 mph 35.7 mph N/A   Overcast
9:35 AM 55.4 °F 37.4 °F 51% 30.20 in 10.0 mi NE 18.4 mph 29.9 mph N/A   Overcast
10:15 AM 55.4 °F 41.0 °F 58% 30.22 in 10.0 mi NE 29.9 mph 38.0 mph N/A   Overcast
10:35 AM 55.4 °F 39.2 °F 54% 30.23 in 10.0 mi NE 25.3 mph 35.7 mph N/A   Overcast
10:55 AM 55.4 °F 37.4 °F 51% 30.24 in 10.0 mi NE 23.0 mph 35.7 mph N/A   Overcast
11:15 AM 59.0 °F 39.2 °F 48% 30.25 in - NE 25.3 mph 35.7 mph N/A   Overcast
11:35 AM 57.2 °F 37.4 °F 48% 30.26 in 10.0 mi NE 26.5 mph 31.1 mph N/A   Overcast
11:55 AM 57.2 °F 37.4 °F 48% 30.26 in 10.0 mi NE 23.0 mph 35.7 mph N/A   Overcast
12:15 PM 57.2 °F 41.0 °F 55% 30.27 in 10.0 mi NE 20.7 mph 32.2 mph N/A   Overcast
12:35 PM 57.2 °F 39.2 °F 51% 30.26 in 10.0 mi NE 20.7 mph 32.2 mph N/A   Overcast
12:55 PM 59.0 °F 41.0 °F 51% 30.26 in 10.0 mi NE 23.0 mph 32.2 mph N/A   Overcast
1:15 PM 59.0 °F 39.2 °F 48% 30.25 in 10.0 mi NE 21.9 mph 34.5 mph N/A   Overcast
1:35 PM 57.2 °F 39.2 °F 51% 30.26 in 10.0 mi NE 23.0 mph 32.2 mph N/A   Overcast
1:55 PM 57.2 °F 39.2 °F 51% 30.26 in 10.0 mi NE 24.2 mph 33.4 mph N/A   Overcast
2:15 PM 59.0 °F 41.0 °F 51% 30.27 in 10.0 mi NE 19.6 mph 34.5 mph N/A   Overcast
2:35 PM 57.2 °F 39.2 °F 51% 30.27 in 10.0 mi NE 20.7 mph 32.2 mph N/A   Overcast
2:55 PM 57.2 °F 41.0 °F 55% 30.27 in 10.0 mi NE 21.9 mph 28.8 mph N/A   Overcast
3:35 PM 57.2 °F 41.0 °F 55% 30.29 in 10.0 mi NE 23.0 mph 27.6 mph N/A   Overcast
3:55 PM 55.4 °F 39.2 °F 54% 30.29 in 10.0 mi NE 20.7 mph 27.6 mph N/A   Overcast
4:15 PM 57.2 °F 39.2 °F 51% 30.30 in 10.0 mi NE 18.4 mph 31.1 mph N/A   Overcast
4:35 PM 55.4 °F 39.2 °F 54% 30.31 in 10.0 mi NE 18.4 mph 26.5 mph N/A   Overcast
5:15 PM 55.4 °F 39.2 °F 54% 30.31 in 10.0 mi NE 16.1 mph 26.5 mph N/A   Overcast
5:35 PM 55.4 °F 39.2 °F 54% 30.32 in 10.0 mi NE 17.3 mph 26.5 mph N/A   Overcast
5:55 PM 55.4 °F 39.2 °F 54% 30.32 in 10.0 mi NE 23.0 mph 28.8 mph N/A   Overcast
6:15 PM 55.4 °F 39.2 °F 54% 30.32 in 10.0 mi NE 19.6 mph 27.6 mph N/A   Overcast
6:35 PM 55.4 °F 39.2 °F 54% 30.32 in 10.0 mi NE 16.1 mph 25.3 mph N/A   Overcast
6:55 PM 55.4 °F 37.4 °F 51% 30.33 in 10.0 mi NE 19.6 mph 27.6 mph N/A   Overcast
7:15 PM 55.4 °F 39.2 °F 54% 30.34 in 10.0 mi NE 18.4 mph - N/A   Overcast
7:35 PM 55.4 °F 37.4 °F 51% 30.34 in 10.0 mi NE 17.3 mph 27.6 mph N/A   Overcast
7:55 PM 55.4 °F 37.4 °F 51% 30.35 in 10.0 mi NE 16.1 mph 24.2 mph N/A   Overcast
8:15 PM 55.4 °F 39.2 °F 54% 30.35 in 10.0 mi ENE 16.1 mph 23.0 mph N/A   Overcast
8:35 PM 55.4 °F 39.2 °F 54% 30.35 in 10.0 mi NE 16.1 mph 26.5 mph N/A   Overcast
8:55 PM 55.4 °F 39.2 °F 54% 30.35 in 10.0 mi NE 17.3 mph 24.2 mph N/A   Overcast
9:15 PM 55.4 °F 41.0 °F 58% 30.35 in 10.0 mi NE 16.1 mph 24.2 mph N/A   Overcast
9:35 PM 55.4 °F 41.0 °F 58% 30.35 in 10.0 mi NE 16.1 mph 20.7 mph N/A   Overcast
9:55 PM 55.4 °F 42.8 °F 63% 30.36 in 10.0 mi NE 19.6 mph 23.0 mph N/A   Overcast
10:15 PM 55.4 °F 42.8 °F 63% 30.36 in 10.0 mi NE 17.3 mph 24.2 mph N/A   Overcast
10:35 PM 55.4 °F 41.0 °F 58% 30.36 in 10.0 mi NE 15.0 mph 23.0 mph N/A   Overcast
10:55 PM 55.4 °F 41.0 °F 58% 30.36 in 10.0 mi NE 17.3 mph 23.0 mph N/A   Overcast
11:15 PM 55.4 °F 41.0 °F 58% 30.36 in 10.0 mi NE 18.4 mph 21.9 mph N/A   Overcast
11:35 PM 55.4 °F 41.0 °F 58% 30.36 in 10.0 mi NE 16.1 mph 24.2 mph N/A   Overcast
11:55 PM 55.4 °F 41.0 °F 58% 30.36 in 10.0 mi NE 15.0 mph 21.9 mph N/A   Overcast